Home   Weather   Atlanta   Past weeks
Flag for USA

Past Weather in Atlanta, Georgia, USA — Yesterday and Last 2 Weeks

Now
74 °F

Clear.


Feels Like: 76 °F
Forecast: 89 / 64 °F
Wind: No wind

Location: Fulton County Airport-Brown Field

Current Time: May 20, 2019 at 10:41:28 pm

Latest Report: May 20, 2019 at 9:53 pm


Visibility: 10 mi

Pressure: 29.96 "Hg

Humidity: 64%

Dew Point: 61 °F

Location of AtlantaLocation

Past Weather in Atlanta — Graph

°F

Atlanta Temperature Yesterday

Maximum temperature yesterday: 87 °F (at 3:53 pm)
Minimum temperature yesterday: 63 °F (at 6:53 am)
Average temperature yesterday: 76 °F

High & Low Weather Summary for the Past Weeks

 TemperatureHumidityPressure
High87 °F (May 18, 3:53 pm)100% (May 6, 6:53 am)30.14 "Hg (May 6, 6:53 am)
Low49 °F (May 15, 6:53 am)33% (May 19, 4:53 pm)29.73 "Hg (May 12, 5:53 pm)
Average71 °F72%29.97 "Hg
* Reported May 5 8:53 pm — May 20 8:53 pm, Atlanta. Weather by CustomWeather, © 2019

Note: Actual official high and low records may vary slightly from our data, if they occured in-between our weather recording intervals... More about our weather records

Advertising

Atlanta Weather History for the Previous 24 Hours

Scroll right to see more
 ConditionsComfort  
Time TempWeatherWind HumidityBarometerVisibility
8:53 pm
Mon, May 20
79 °FClear.No wind50%29.95 "Hg10 mi
7:53 pm82 °FSunny.7 mph44%29.95 "Hg10 mi
6:53 pm84 °FSunny.9 mph40%29.96 "Hg10 mi
5:53 pm84 °FPassing clouds.6 mph41%29.96 "Hg10 mi
4:53 pm85 °FSunny.9 mph40%29.96 "Hg10 mi
3:53 pm85 °FPassing clouds.6 mph40%29.98 "Hg10 mi
2:53 pm85 °FScattered clouds.9 mph45%30.00 "Hg10 mi
1:53 pm83 °FScattered clouds.6 mph50%30.02 "Hg10 mi
12:53 pm83 °FScattered clouds.12 mph55%30.03 "Hg10 mi
11:53 am80 °FScattered clouds.10 mph60%30.04 "Hg10 mi
10:53 am78 °FScattered clouds.12 mph64%30.05 "Hg10 mi
9:53 am75 °FMostly cloudy.9 mph69%30.05 "Hg10 mi
8:53 am74 °FScattered clouds.6 mph69%30.04 "Hg10 mi
7:53 am70 °FMostly cloudy.3 mph81%30.02 "Hg10 mi
6:53 am69 °FOvercast.No wind81%30.01 "Hg10 mi
5:53 am68 °FPassing clouds.No wind87%29.99 "Hg10 mi
4:53 am68 °FOvercast.No wind87%29.98 "Hg10 mi
3:53 am68 °FPassing clouds.No wind87%29.98 "Hg10 mi
2:53 am66 °FClear.No wind90%29.98 "Hg10 mi
1:53 am69 °FPassing clouds.No wind81%29.98 "Hg10 mi
12:53 am67 °FClear.No wind87%29.98 "Hg10 mi
11:53 pm
Sun, May 19
70 °FClear.No wind79%29.98 "Hg10 mi
10:53 pm71 °FClear.No wind76%29.98 "Hg10 mi
Weather by CustomWeather, © 2019

See weather overview